CW6301 Weather Reports


Display with metric or nautical units.
time (UTC)temp
F
wind
direction
speed
MPH
gust
MPH
rain 1hr
in
rain 24hr
in
rain mn
in
humidity
%
barometer
mb
20180622223027 67 63 2.0 5.0 0.00 0.00 0.00 68 1008.2
20180622220026 68 63 2.0 6.0 0.00 0.00 0.00 67 1008.3
20180622213026 68 78 3.0 8.0 0.00 0.00 0.00 62 1008.5
20180622210025 68 91 1.0 9.0 0.00 0.00 0.00 67 1008.4
20180622203024 68 56 2.0 7.0 0.00 0.00 0.00 66 1008.5
20180622200024 68 54 3.0 6.0 0.00 0.00 0.00 62 1008.8
20180622193023 67 89 2.0 7.0 0.00 0.00 0.00 65 1008.8
20180622190022 66 72 3.0 6.0 0.00 0.00 0.00 62 1009.4
20180622183022 66 62 2.0 7.0 0.00 0.00 0.00 63 1009.3
20180622180021 66 70 4.0 6.0 0.00 0.00 0.00 65 1009.3
20180622173020 66 105 3.0 7.0 0.00 0.00 0.00 66 1009.7
20180622170020 65 63 2.0 6.0 0.00 0.00 0.00 66 1010.0
20180622163019 64 54 2.0 9.0 0.00 0.00 0.00 69 1010.3
20180622160018 65 70 2.0 8.0 0.00 0.00 0.00 67 1010.6
20180622153018 63 56 1.0 7.0 0.00 0.00 0.00 68 1010.6
20180622150016 62 70 3.0 6.0 0.00 0.00 0.00 70 1010.8
20180622143016 61 51 3.0 6.0 0.00 0.00 0.00 71 1011.0
20180622140015 61 86 2.0 5.0 0.00 0.00 0.00 70 1011.0
20180622133015 60 64 2.0 5.0 0.00 0.00 0.00 71 1010.7
20180622130016 59 79 1.0 4.0 0.00 0.00 0.00 73 1010.7
20180622123013 58 68 1.0 5.0 0.00 0.00 0.00 76 1010.5
20180622120012 58 63 2.0 4.0 0.00 0.00 0.00 77 1010.3
20180622113012 58 54 1.0 5.0 0.00 0.00 0.00 78 1010.2
20180622110011 58 76 2.0 5.0 0.00 0.00 0.00 72 1010.2
20180622103010 59 63 3.0 7.0 0.00 0.00 0.00 71 1010.1
20180622100010 59 72 4.0 6.0 0.00 0.00 0.00 78 1010.1
20180622093009 59 103 2.0 5.0 0.00 0.00 0.00 81 1010.0
20180622090038 60 61 2.0 4.0 0.00 0.00 0.00 83 1009.9
20180622083007 60 76 3.0 4.0 0.00 0.00 0.00 82 1010.1
20180622080006 60 77 1.0 3.0 0.00 0.00 0.00 83 1010.2
20180622073006 60 78 1.0 3.0 0.00 0.00 0.00 85 1010.3
20180622070005 59 96 0.0 5.0 0.00 0.00 0.00 86 1010.3
20180622063004 59 75 0.0 1.0 0.00 0.00 0.00 85 1010.4
20180622060004 60 101 1.0 4.0 0.00 0.00 0.00 84 1010.4
20180622053003 60 76 2.0 5.0 0.00 0.00 0.00 82 1010.5
20180622050033 61 75 3.0 6.0 0.00 0.00 0.00 81 1010.6
20180622043032 61 117 1.0 4.0 0.00 0.00 0.00 82 1010.6
20180622040031 62 61 2.0 5.0 0.00 0.00 0.00 80 1010.8
20180622033030 62 68 3.0 4.0 0.00 0.00 0.00 80 1010.8
20180622030029 63 56 2.0 4.0 0.00 0.00 0.00 81 1010.9
20180622023029 63 65 0.0 5.0 0.00 0.00 0.00 81 1010.7
20180622020028 64 70 0.0 4.0 0.00 0.00 0.00 79 1010.5
20180622013027 65 65 2.0 8.0 0.00 0.00 0.00 77 1010.1
20180622010027 66 133 1.0 5.0 0.00 0.00 0.00 78 1010.1
20180622003027 66 77 3.0 8.0 0.00 0.00 0.00 76 1009.9
20180622000026 68 77 3.0 8.0 0.00 0.00 0.00 77 1009.8
20180621233025 68 72 4.0 11.0 0.00 0.00 0.00 77 1009.6
20180621230024 68 107 2.0 5.0 0.00 0.00 0.00 82 1009.6